This demonstration page uses our WeatherBlox Daily Observations layout. Learn more.

Left ArrowRight Arrow

39.95238, -75.16362

Hourly Observations for August 20, 2016

Temp ( °F °C ) Dew Point ( °F °C ) Humidity (%) Winds ( mph kmh ) Pressure ( in mb ) Visibility ( mi km ) Precip ( " mm )
12:54 am 00:54 Mostly Clear 76 24.4 71 21.7 85 85 Calm 29.92 1013 10 16 0.00 0.00
1:54 am 01:54 Mostly Clear 75 23.9 71 21.7 88 88 Calm 29.92 1013 10 16 0.00 0.00
2:54 am 02:54 Mostly Clear 76 24.4 71 21.7 85 85 Calm 29.93 1014 10 16 0.00 0.00
3:54 am 03:54 Clear 75 23.9 70 21.1 84 84 NNW 6 9 29.92 1013 10 16 0.00 0.00
4:54 am 04:54 Clear 74 23.3 69 20.6 85 85 Calm 29.92 1013 10 16 0.00 0.00
5:29 am 05:29 Clear 74 23.3 70 21.1 88 88 E 3 6 29.91 1013 8 13 0.00 0.00
5:54 am 05:54 Clear 73 22.8 70 21.1 90 90 NE 3 6 29.92 1013 9 14 0.00 0.00
6:54 am 06:54 Sunny 74 23.3 70 21.1 88 88 NNE 5 7 29.93 1013 7 11 0.00 0.00
7:54 am 07:54 Mostly Sunny 77 25 71 21.7 82 82 NE 5 7 29.93 1013 8 13 0.00 0.00
8:54 am 08:54 Mostly Sunny 80 26.7 72 22.2 76 76 ENE 6 9 29.93 1013 7 11 0.00 0.00
9:48 am 09:48 Mostly Sunny 82 28 70 21 66 66 E 6 9 29.94 1014 10 16 0.00 0.00
9:54 am 09:54 Mostly Sunny 82 27.8 68 20 63 63 E 8 13 29.93 1014 10 16 0.00 0.00
10:54 am 10:54 Mostly Sunny 86 30 68 20 55 55 E 5 7 29.93 1014 10 16 0.00 0.00
11:54 am 11:54 Partly Cloudy 87 30.6 67 19.4 51 51 E 7 11 29.93 1013 10 16 0.00 0.00
12:54 pm 12:54 Partly Cloudy 90 32.2 66 18.9 45 45 ENE 7 11 29.91 1013 10 16 0.00 0.00
1:54 pm 13:54 Partly Cloudy 91 32.8 64 17.8 41 41 NE 5 7 29.89 1012 10 16 0.00 0.00
2:54 pm 14:54 Partly Cloudy 92 33.3 62 16.7 37 37 NE 6 9 29.88 1012 10 16 0.00 0.00
3:54 pm 15:54 Partly Cloudy 92 33.3 60 15.6 34 34 ENE 5 7 29.86 1011 10 16 0.00 0.00
4:54 pm 16:54 Partly Cloudy 92 33.1 68 20 46 46 SSW 12 19 29.85 1011 10 16 0.00 0.00
5:54 pm 17:54 Partly Cloudy 88 31.1 69 20.6 54 54 S 12 19 29.86 1011 10 16 0.00 0.00
6:54 pm 18:54 Partly Cloudy 84 28.9 67 19.4 57 57 SSE 13 20 29.86 1011 10 16 0.00 0.00
7:54 pm 19:54 Partly Cloudy 81 27.2 70 21.1 69 69 SE 12 19 29.87 1012 10 16 0.00 0.00
8:54 pm 20:54 Partly Cloudy 80 26.7 71 21.7 74 74 SE 7 11 29.88 1012 10 16 0.00 0.00
9:54 pm 21:54 Mostly Clear 79 26.1 71 21.7 77 77 SE 7 11 29.89 1012 10 16 0.00 0.00
10:54 pm 22:54 Mostly Clear 77 25 72 22.2 85 85 SE 8 13 29.90 1012 10 16 0.00 0.00
11:54 pm 23:54 Partly Cloudy 77 25 72 22.2 85 85 ESE 6 9 29.90 1013 10 16 0.00 0.00

Powered by AerisWeather